Location: Poughquag
(41.6090°N, 73.6820°W)
Time: 02:17:11
(UTC-04:00)

Altair - Pass Details

Date: 04 June 2020
Orbit: 1501 x 1683 km, 47.2° (Epoch: 06 July)

Event Time Altitude Azimuth Distance (km) Brightness Sun altitude
Rises 22:38:22 0° 251° (WSW) 4,811 10.3 -18.6°
Reaches altitude 10° 22:41:26 10° 253° (WSW) 3,849 9.8 -18.9°
Maximum altitude 22:51:22 78° 340° (NNW) 1,695 7.8 -19.9°
Drops below altitude 10° 23:01:35 10° 67° (ENE) 3,948 9.6 -20.8°
Sets 23:04:47 0° 69° (ENE) 4,939 10.1 -21.1°
